Location: Peebles
(55.6412°N, 3.1714°W)
Time: 22:24:16
(UTC+00:00)

Daily predictions for brighter satellites

Satellite Brightness Start Highest point End
(mag) Time Altitude Azimuth Time Altitude Azimuth Time Altitude Azimuth
NOSS 3-2 (C) 4.1 16:13:34 10° WNW 16:20:16 51° NNE 16:27:47 10° E
Cosmos 1513 Rocket 4.5 16:17:49 10° S 16:23:55 76° E 16:30:00 10° NNE
Cosmos 2285 Rocket 4.4 16:18:26 10° NNW 16:24:44 72° WSW 16:31:01 10° SSE
Cosmos 1437 Rocket 3.0 16:21:06 10° NNW 16:24:55 72° WSW 16:28:41 10° S
MSX 3.9 16:20:04 10° SSE 16:25:48 69° ENE 16:31:34 10° NNW
Nadezhda 4 Rocket 4.0 16:21:24 10° N 16:27:35 87° E 16:33:46 10° S
Cosmos 1844 Rocket 4.4 16:23:54 10° WNW 16:27:50 19° NNW 16:31:46 10° NNE
CZ-2C R/B 2.5 16:26:47 10° SSE 16:31:59 79° ENE 16:37:09 10° NNW
ALOS 3.7 16:30:17 10° E 16:33:12 17° NE 16:36:07 10° NNE
Cosmos 2151 Rocket 4.3 16:29:31 10° NNW 16:33:56 61° W 16:38:22 10° S
SL-16 R/B 3.3 16:28:10 10° NNE 16:34:13 54° WNW 16:40:12 10° SW
Okean 1-7 3.9 16:30:12 10° SSW 16:34:29 51° WNW 16:38:47 10° N
Cosmos 2297 Rocket 2.7 16:30:27 10° NNW 16:35:44 38° NE 16:40:59 10° ESE
ATLAS 2AS CENTAUR R/B 4.4 16:30:40 10° SSE 16:35:48 19° ESE 16:41:02 10° ENE
ATLAS 3B R/B 2.7 16:29:21 10° NW 16:36:12 68° NNE 16:42:47 10° ESE
Cosmos 1455 Rocket 4.2 16:33:04 10° N 16:36:41 24° ENE 16:40:16 10° ESE
Meteor 1-5 Rocket 4.5 16:32:38 10° NNW 16:37:56 70° W 16:43:18 10° S
Cosmos 1500 3.2 16:37:36 10° N 16:41:22 55° ENE 16:45:05 10° SSE
Cosmos 968 Rocket 4.2 16:36:32 10° SW 16:41:39 51° NW 16:46:49 10° NNE
Cosmos 1271 Rocket 3.7 16:39:26 10° N 16:42:37 25° ENE 16:45:50 10° ESE
Cosmos 1975 3.3 16:41:00 10° N 16:44:48 38° ENE 16:48:36 10° SE
Cosmos 1300 Rocket 3.9 16:40:51 10° NNW 16:45:13 71° W 16:49:37 10° S
ATLAS CENTAUR R/B 4.4 16:42:54 10° WNW 16:45:52 21° WSW 16:48:56 10° S
Cosmos 1943 Rocket 2.3 16:40:19 10° SSW 16:45:55 71° ESE 16:51:36 10° NE
Intercosmos 25 3.6 16:42:58 10° SSW 16:46:25 55° WNW 16:49:34 10° N
USA 229 DEB 3.8 16:40:12 10° WSW 16:47:02 79° NW 16:53:58 11° NE
USA 229 3.8 16:40:18 10° WSW 16:47:09 79° NW 16:54:04 11° NE
Meteor 1-27 Rocket 4.0 16:42:05 10° SSW 16:48:00 81° WNW 16:53:51 10° NNE
NOSS 3-1 (A) 3.7 16:44:04 10° SSW 16:49:55 63° SE 16:56:22 11° NE
YAOGAN 1 3.3 16:49:24 10° ESE 16:53:13 31° ENE 16:57:02 10° N
Meteor 1-4 Rocket 2.8 16:51:43 10° NNW 16:55:27 74° WSW 16:59:05 10° S
Cosmos 1484 Rocket 3.0 16:53:45 10° SE 16:57:40 53° ENE 17:01:36 10° N
COSMO-SKYMED 1 4.4 16:58:19 12° ENE 16:58:45 13° E 17:00:39 10° ESE
CZ-4 R/B 1.6 17:00:03 10° SE 17:03:45 44° ENE 17:07:32 10° N
IRAS Rocket 4.2 16:58:23 10° SSE 17:03:52 82° ENE 17:09:24 10° NNW
ISS -1.9 17:01:23 10° W 17:04:17 29° SSW 17:07:12 10° SE
ERS-2 3.2 17:02:38 10° ESE 17:05:37 24° ENE 17:08:37 10° N
Cosmos 1092 Rocket 4.3 16:59:43 10° NNW 17:05:57 75° W 17:12:11 10° S
Cosmos 1634 Rocket 4.1 17:00:51 10° S 17:06:56 59° E 17:13:06 10° NNE
Cosmos 1655 Rocket 4.0 17:02:37 10° N 17:08:58 63° ENE 17:15:18 10° SSE
Cosmos 158 Rocket 4.1 17:06:46 10° NNW 17:11:51 50° NE 17:16:45 10° SE
SJ-12 4.3 17:08:16 10° S 17:12:22 69° WSW 17:16:30 10° NNW
CSL-04 Debris 4.1 17:07:48 10° SSE 17:13:12 81° ENE 17:18:38 10° NNW
Cosmos 1666 3.0 17:10:14 10° N 17:13:51 42° ENE 17:17:26 10° SE
SPOT 3 Rocket 4.1 17:09:15 10° ESE 17:13:53 34° ENE 17:18:32 10° N
DNEPR-1 R/B 4.4 17:09:48 10° NW 17:14:04 39° NNE 17:17:54 15° E
Cosmos 1812 2.6 17:10:57 10° S 17:14:49 81° ESE 17:18:44 10° NNE
Okean 1 Rocket 3.8 17:11:11 10° NNW 17:15:36 57° W 17:20:00 10° S
Cosmos 1975 Rocket 3.5 17:12:07 10° SSE 17:16:21 43° E 17:20:37 10° NNE
Cosmos 2263 Rocket 3.6 17:12:38 10° NNW 17:16:39 20° NNE 17:18:59 16° NE
SJ-7 4.3 17:14:58 10° SSE 17:18:59 89° ENE 17:23:00 10° NNW
CENTAUR R/B 3.2 17:12:05 10° WNW 17:19:08 52° NNE 17:25:55 14° E
Cosmos 2084 Rocket 4.3 17:17:51 10° W 17:21:39 35° NNW 17:24:03 18° NE
Meteor 1-12 Rocket 4.2 17:16:19 10° NNW 17:22:01 84° ENE 17:27:45 10° SSE
Cosmos 2026 Rocket 4.1 17:16:59 10° NNW 17:23:25 85° W 17:29:47 10° S
Cosmos 2266 Rocket 4.2 17:19:00 10° N 17:24:47 44° ENE 17:30:36 10° SE
Aureole 1 Rocket 4.2 17:20:32 10° NNW 17:25:45 69° WSW 17:32:36 10° SSE
BREEZE-M DEB (TANK) 4.0 17:27:29 10° SSW 17:29:30 24° SSE 17:31:40 15° ESE
Cosmos 1674 Rocket 4.2 17:25:33 10° SSW 17:29:47 56° WNW 17:34:05 10° N
CZ-4 R/B 4.5 17:26:07 10° SE 17:30:10 55° ENE 17:34:13 10° N
MOS 1 4.3 17:26:42 10° SE 17:32:14 56° ENE 17:37:48 10° NNW
Cosmos 2369 Rocket 2.9 17:28:48 10° WSW 17:34:13 48° NW 17:39:08 13° NNE
CSL-04 Rocket 4.1 17:29:33 10° S 17:34:58 69° WSW 17:40:30 10° NNW
USA 238 DEB 4.0 17:28:28 10° NW 17:35:33 76° SW 17:42:42 10° SE
USA 238 4.0 17:28:34 10° NW 17:35:39 77° SW 17:42:49 10° SE
Cosmos 1269 Rocket 4.2 17:30:31 10° NNW 17:35:44 51° NE 17:40:54 10° SE
NOAA 15 4.5 17:31:11 10° SSE 17:36:25 78° ENE 17:41:42 10° NNW
Cosmos 1378 Rocket 3.7 17:32:07 10° SSW 17:36:34 78° WNW 17:41:03 10° N
Cosmos 2082 3.6 17:32:52 10° NNW 17:38:32 72° NE 17:44:09 10° SE
COSMOS 2455 4.0 17:33:23 10° NW 17:38:33 28° N 17:41:23 20° NE
FENGYUN 3A 3.8 17:33:40 10° SE 17:38:48 48° ENE 17:43:57 10° N
Cosmos 1898 Rocket 3.5 17:35:29 10° SSW 17:40:39 69° ESE 17:44:37 18° NNE
Cosmos 1818 3.7 17:35:46 10° SSW 17:41:07 62° SE 17:44:20 24° ENE
Ariane Rocket 3.4 17:38:08 10° S 17:43:10 65° WSW 17:48:14 10° NNW
Cosmos 724 4.2 17:38:17 10° NW 17:44:08 88° NE 17:49:57 10° SE
Cosmos 1536 Rocket 4.3 17:40:49 10° SSE 17:44:34 29° E 17:44:49 29° E
Okean 3 4.2 17:40:43 10° SSW 17:44:49 52° WNW 17:48:59 10° N
IRS-1A Rocket 4.2 17:40:39 10° SSE 17:46:15 89° WSW 17:51:49 10° NNW
Meteor 1-28 Rocket 3.2 17:45:10 25° NNE 17:47:08 54° E 17:50:49 10° S
SKYMED 2 4.3 17:46:57 29° E 17:47:25 30° E 17:51:15 10° SSE
USA 161 2.9 17:45:43 13° N 17:47:50 36° WNW 17:50:31 10° SW
METEOR-M 4.0 17:42:38 10° SSE 17:47:58 78° ENE 17:53:21 10° NNW
CZ-2C R/B 4.0 17:45:06 20° NNE 17:48:04 47° E 17:52:37 10° S
NOAA 12 4.1 17:44:24 10° SE 17:49:32 55° ENE 17:54:40 10° N
Cosmos 1743 2.9 17:47:28 10° NNW 17:51:21 75° W 17:55:13 10° S
Cosmos 2227 Rocket 2.3 17:47:14 10° NW 17:52:57 82° WSW 17:58:37 10° SSE
Cosmos 1048 Rocket 4.0 17:49:02 10° NNW 17:54:27 76° ENE 17:59:50 10° SSE
Cosmos 1937 Rocket 3.4 17:50:32 10° SSW 17:55:40 67° ESE 17:58:44 24° NE
Cosmos 2298 Rocket 4.0 17:51:22 10° SSW 17:56:38 66° ESE 17:59:47 24° NE
NOSS 2-3 (D) 4.2 17:53:07 10° SSW 17:57:53 57° SE 18:00:24 31° ENE
MONITOR-E 4.0 17:55:27 10° SSE 17:58:28 65° ENE 18:01:32 10° N
SMAP 4.0 17:54:25 10° S 17:58:56 49° W 18:03:29 10° NNW
Cosmos 389 Rocket 3.6 17:55:39 10° NNW 17:59:02 46° W 18:02:23 10° S
Cosmos 1656 Rocket 3.7 17:54:10 10° SW 17:59:42 79° NW 18:03:24 22° NNE
Cosmos 2278 Rocket 4.0 17:57:38 10° NW 18:01:21 17° N 18:03:37 14° NNE
Meteor 2-9 Rocket 4.1 17:57:48 10° NNW 18:03:28 84° ENE 18:08:56 10° SSE
NOSS 3-1 (C) 3.9 17:57:30 10° WSW 18:03:36 62° NNW 18:07:44 25° NE
NOSS 3-2 (A) 4.0 17:59:14 10° NW 18:06:27 81° SW 18:14:28 10° SE
MINOTAUR IV R/B 4.5 18:04:03 10° NNW 18:08:36 88° ENE 18:13:06 10° SSE
ALOS 2.1 18:05:17 10° SSE 18:09:56 76° ENE 18:14:38 10° NNW
NOSS 3-2 (C) 3.9 18:04:43 10° NW 18:11:56 88° SW 18:19:48 11° SE
Landsat 4 3.8 18:13:08 54° ESE 18:13:08 54° ESE 18:16:44 10° S
Cosmos 1844 Rocket 4.3 18:10:10 10° NNW 18:13:55 18° NNE 18:14:38 18° NNE
Okean 1 4.0 18:10:52 10° SSW 18:14:46 54° WNW 18:17:53 15° N
Cosmos 1455 Rocket 3.7 18:10:31 10° NNW 18:14:53 58° W 18:19:13 10° S
Cosmos 2279 Rocket 4.1 18:11:04 10° SSW 18:17:21 80° WNW 18:23:40 10° N
STPSAT 2 (USA 217) 4.5 18:13:32 10° NNW 18:18:07 81° NE 18:20:28 28° SE
Cosmos 1544 Rocket 4.5 18:14:28 10° NNW 18:18:43 50° W 18:22:54 10° S
Cosmos 1271 Rocket 4.1 18:15:15 10° NNW 18:18:48 39° W 18:22:22 10° SSW
Cosmos 2297 Rocket 2.6 18:14:32 10° NW 18:20:09 64° WSW 18:25:44 10° SSE
ATLAS 2AS CENTAUR R/B 3.1 18:17:37 10° SSW 18:25:21 60° SE 18:28:53 35° ENE
Cosmos 990 Rocket 4.0 18:21:11 10° SSW 18:26:21 82° WNW 18:28:50 32° NNE
ATLAS 3B R/B 3.6 18:20:22 10° NW 18:26:44 46° SW 18:32:54 10° SSE
NOSS 2-3 (E) 4.0 18:23:08 10° SW 18:28:05 83° SE 18:29:52 46° ENE
YAOGAN 1 3.7 18:25:05 10° S 18:29:13 44° W 18:33:23 10° NNW
Cosmos 1943 Rocket 3.4 18:24:58 10° WSW 18:30:10 35° NW 18:33:31 19° NNE
Meteor 1-13 Rocket 4.1 18:25:59 10° S 18:31:36 84° ESE 18:35:54 19° NNE
Cosmos 2227 4.3 18:26:35 10° NNW 18:32:16 54° NE 18:33:03 50° ENE
USA 116 3.9 18:35:58 55° WSW 18:35:58 55° WSW 18:38:40 10° SSW
COSMO-SKYMED 1 2.4 18:35:32 75° ENE 18:35:42 77° ESE 18:40:02 10° S
Meteor 2-4 Rocket 3.4 18:32:59 10° S 18:38:25 77° E 18:40:31 38° NNE
Meteor 1-15 Rocket 4.3 18:32:26 10° NNW 18:38:25 88° WSW 18:44:22 10° SSE
USA 229 DEB 4.3 18:32:12 10° W 18:38:52 47° N 18:41:24 34° NE
USA 229 4.3 18:32:18 10° W 18:38:57 47° N 18:41:30 34° NE
CZ-4 R/B 3.6 18:35:45 10° SSW 18:38:59 25° W 18:42:19 10° NW
ERS-2 3.2 18:35:35 10° S 18:39:06 45° W 18:42:40 10° NNW
ISS -0.7 18:39:08 10° SW 18:40:01 11° SW 18:40:54 10° SSW
NOSS 3-1 (A) 4.0 18:34:56 10° WSW 18:41:03 57° NNW 18:43:48 36° NE
Cosmos 2150 Rocket 4.2 18:36:30 10° SW 18:41:58 72° WNW 18:44:20 35° NNE
Nadezhda 2 Rocket 4.4 18:36:37 10° N 18:42:55 84° E 18:49:18 10° SSE
Cosmos 1656 4.4 18:45:02 10° S 18:48:48 37° SSE 18:48:48 37° SSE
SPOT 3 Rocket 4.3 18:48:05 10° S 18:53:08 52° W 18:58:13 10° NNW
Cosmos 2369 4.0 18:50:54 10° SSW 18:55:32 50° SSE 18:55:32 50° SSE
Cosmos 2278 4.1 18:52:48 10° S 18:57:14 47° SSE 18:57:14 47° SSE
SJ 16-02 2.9 18:54:57 10° SSW 18:56:51 25° S 18:56:51 25° S
DNEPR-1 R/B 4.0 18:57:01 10° NW 19:01:45 74° SW 19:02:17 67° S
Cosmos 2263 Rocket 3.0 18:56:43 10° NNW 19:00:41 37° N 19:00:41 37° N
NOSS 2-3 (C) 4.2 18:58:44 10° WSW 19:03:48 72° NNW 19:04:30 64° NNE
Cosmos 2251 Rocket 3.7 19:04:08 10° NNW 19:08:34 61° NNW 19:08:34 61° NNW
CENTAUR R/B 3.0 19:03:01 10° NW 19:10:35 88° SW 19:13:08 50° SE
Cosmos 2369 Rocket 4.0 19:15:27 10° WNW 19:19:37 21° NNW 19:20:56 19° N
Cosmos 1697 Rocket 4.3 19:18:48 10° S 19:20:48 22° S 19:20:48 22° S
Cosmos 1818 4.2 19:19:39 10° WSW 19:24:55 47° NNW 19:24:59 47° NNW
COSMOS 2455 3.6 19:20:03 10° NW 19:24:32 40° N 19:24:32 40° N
Cosmos 1125 Rocket 4.3 19:28:57 10° SSW 19:32:38 45° SW 19:32:38 45° SW
Cosmos 2278 Rocket 4.2 19:43:16 10° NNW 19:45:27 18° N 19:45:27 18° N
NOSS 3-1 (C) 4.4 19:49:20 10° WNW 19:55:08 45° N 19:55:08 45° N
Cosmos 1943 Rocket 4.3 20:11:44 10° NW 20:15:02 18° NNW 20:15:02 18° NNW
ATLAS 2AS CENTAUR R/B 3.3 20:08:30 10° WSW 20:16:20 66° NW 20:16:20 66° NW
Cosmos 2263 Rocket 4.4 20:40:45 10° NW 20:42:23 19° NW 20:42:23 19° NW
CENTAUR R/B 4.2 20:54:00 10° WNW 21:00:21 35° WSW 21:00:21 35° WSW
